This demonstration page uses our WeatherBlox Daily Observations layout. Learn more.

Left ArrowRight Arrow

39.08367, -84.50855

Hourly Observations for December 27, 2017

Temp ( °F °C ) Dew Point ( °F °C ) Humidity (%) Winds ( mph kmh ) Pressure ( in mb ) Visibility ( mi km ) Precip ( " mm )
12:03 am 00:03 Mostly Cloudy 15 -9.4 8 -13.3 74 74 N 8 13 30.65 1038 10 16 N/A
12:53 am 00:53 Cloudy 14 -10 4 -15.6 64 64 N 8 13 30.63 1037 10 16 N/A
1:53 am 01:53 Cloudy 12 -11.1 -2 -18.9 53 53 N 7 11 30.64 1038 10 16 N/A
2:53 am 02:53 Partly Cloudy 10 -12.2 -5 -20.6 50 50 N 7 11 30.65 1038 10 16 N/A
3:53 am 03:53 Clear 9 -12.8 -3 -19.4 58 58 N 12 19 30.66 1038 10 16 N/A
4:53 am 04:53 Clear 8 -13.3 -2 -18.9 63 63 NNW 8 13 30.66 1038 10 16 N/A
5:53 am 05:53 Clear 7 -13.9 -3 -19.4 63 63 N 7 11 30.68 1039 10 16 N/A
6:53 am 06:53 Clear 6 -14.4 -3 -19.4 66 66 NNW 7 11 30.71 1040 10 16 N/A
7:53 am 07:53 Clear 5 -15 -3 -19.4 69 69 NW 7 11 30.72 1040 10 16 N/A
8:53 am 08:53 Sunny 7 -13.9 -2 -18.9 66 66 NW 3 6 30.74 1041 10 16 N/A
9:53 am 09:53 Sunny 9 -12.8 -2 -18.9 61 61 VRB 3 6 30.76 1042 10 16 N/A
10:53 am 10:53 Sunny 12 -11.1 N/A 58 58 VRB 3 6 30.76 1042 10 16 N/A
11:53 am 11:53 Sunny 14 -10 N/A 53 53 NNE 5 7 30.75 1041 10 16 N/A
12:53 pm 12:53 Sunny 15 -9.4 1 -17.2 53 53 VRB 5 7 30.73 1041 10 16 N/A
1:53 pm 13:53 Sunny 17 -8.3 N/A 47 47 undefined N/A 30.72 1040 10 16 N/A
2:53 pm 14:53 Sunny 18 -7.8 N/A 45 45 VRB 6 9 30.72 1040 10 16 N/A
3:53 pm 15:53 Sunny 18 -7.8 -3 -19.4 39 39 VRB 7 11 30.72 1040 10 16 N/A
4:53 pm 16:53 Sunny 16 -8.9 -4 -20 41 41 N 8 13 30.73 1041 10 16 N/A
5:53 pm 17:53 Clear 14 -10 -4 -20 44 44 N 6 9 30.74 1041 10 16 N/A
6:53 pm 18:53 Clear 14 -10 -1 -18.3 51 51 NNW 6 9 30.76 1042 10 16 N/A
7:53 pm 19:53 Clear 13 -10.6 N/A 56 56 N 8 13 30.76 1042 10 16 N/A
8:53 pm 20:53 Clear 13 -10.6 1 -17.2 59 59 NNE 7 11 30.74 1041 10 16 N/A
9:53 pm 21:53 Clear 12 -11.1 2 -16.7 64 64 NNE 8 13 30.75 1041 10 16 N/A
10:53 pm 22:53 Clear 11 -11.7 1 -17.2 64 64 NNE 10 17 30.73 1041 10 16 N/A
11:53 pm 23:53 Clear 11 -11.7 2 -16.7 67 67 NNE 6 9 30.75 1041 10 16 N/A

Powered by AerisWeather